Regional Weather Roundup
Issued by NWS

Home | Current Version | Previous Version | Graphics & Text | Print | Product List | Glossary Off
Versions: 1 2 3 4 5 6 7 8 9 10 11 12 13 14 15 16 17 18 19 20 21 22 23 24 25 26 27 28 29 30 31 32 33 34 35 36 37 38 39 40 41 42 43 44 45 46 47 48 49 50

000
ASUS43 KTOP 250508
RWRKS

WEATHER ROUNDUP FOR KANSAS
NATIONAL WEATHER SERVICE GOODLAND KS
1200 AM CDT SAT APR 25 2015

NOTE:  "FAIR" INDICATES FEW OR NO CLOUDS BELOW 12,000 FEET WITH NO
SIGNIFICANT WEATHER AND/OR OBSTRUCTIONS TO VISIBILITY.

KSZ001>006-013>018-027>032-041>047-250600-
NORTHWEST KANSAS

CITY           SKY/WX    TMP DP  RH WIND       PRES   REMARKS
GOODLAND       CLOUDY    51  43  74 W13       29.60R
HAYS           CLOUDY    54  48  82 SE6       29.49F
HILL CITY      LGT RAIN  56  52  86 SE8       29.51R
RUSSELL        LGT RAIN  55  54  96 SE6       29.44F
$$

KSZ061>065-074>080-084>089-250600-
SOUTHWEST KANSAS

CITY           SKY/WX    TMP DP  RH WIND       PRES   REMARKS
DODGE CITY     CLOUDY    56  44  64 NW13      29.57R
ELKHART          N/A     50  41  71 W6          N/A
GARDEN CITY    CLOUDY    52  45  77 NW9       29.58R
GREAT BEND     CLOUDY    57  52  82 N10       29.50R
LIBERAL        CLOUDY    54  43  66 W7        29.60R
$$

KSZ066>073-081>083-090>101-250600-
SOUTHEAST KANSAS

CITY           SKY/WX    TMP DP  RH WIND       PRES   REMARKS
CHANUTE        CLEAR     61  59  93 S13       29.52F
COFFEYVILLE    CLEAR     62  58  86 S16G25    29.54S
HUTCHINSON     MOCLDY    58  54  86 NE8       29.48F
MEDICINE LODGE   N/A     59  54  83 NW8       29.50R
NEWTON         CLOUDY    54  46  76 NW13G31   29.52F THUNDER
PARSONS        CLEAR     62  59  90 S9        29.55S
WICHITA INTL   MOCLDY    64  59  83 S18       29.46F THUNDER
WICHITA JABRA  CLOUDY    64  59  83 S20G31    29.47R
WICHITA MCCONL CLOUDY    64  59  86 S23G33    29.47F
WINFIELD       MOCLDY    62  59  90 S22G29    29.49F
$$

KSZ007>012-019>026-033>040-048>060-102>105-250600-
NORTHEAST KANSAS

CITY           SKY/WX    TMP DP  RH WIND       PRES   REMARKS
CONCORDIA      RAIN      54  53  97 CALM      29.45F FOG
EMPORIA        LGT RAIN  59  55  87 NW7       29.49S
LAWRENCE       LGT RAIN  61  57  87 SE16      29.51F
MANHATTAN      LGT RAIN  56  56 100 SW7       29.47R
MARYSVILLE     LGT RAIN  57  55  94 S6        29.36F
OLATHE IND     CLOUDY    59  54  83 SE14      29.55F
OLATHE EXE     CLOUDY    59  54  83 SE12      29.55F
SALINA         CLOUDY    56  52  86 SE7       29.48R
TOPEKA BILLARD CLOUDY    64  59  83 SE10      29.48S
TOPEKA FORBES  LGT RAIN  65  58  78 SE15      29.47F
$$


USA.gov is the U.S. government's official web portal to all federal, state and local government web resources and services.